Flag for Brazil Weather past 2 weeks in Boa Vista, Roraima, Brazil

Now
82 °F

Clear.


Feels Like: 87 °F
Forecast: 71 / 89 °F
Wind: 7 mph from Southeast

Location: Boa Vista Aeropor-To

Current Time: Jul 24, 2014 at 10:25:07 PM

Latest Report: Jul 24, 2014 at 10:00 PM


Visibility: 10 mi

Pressure: 29.89 "Hg

Humidity: 70%

Dew point: 72 °F

Location of Boa VistaLocation

Historic Weather in Boa Vista — Graph

°F

Boa Vista temperature yesterday

Maximum temperature yesterday: 91 °F (at 1:00 PM)
Minimum temperature yesterday: 77 °F (at 5:00 AM)
Average temperature yesterday: 85 °F

Past Weeks' High & Low Weather Summary

 TemperatureHumidityPressure
High93 °F (Jul 20, 1:00 PM)100% (Jul 11, 6:00 AM)30.15 "Hg (Jul 11, 6:00 AM)
Low37 °F (Jul 14, 2:00 AM)24% (Jul 23, 4:00 PM)29.83 "Hg (Jul 11, 4:00 PM)
Average82 °F73%29.96 "Hg
* Reported Jul 9 9:00 PM — Jul 24 9:00 PM, Boa Vista, Weather by CustomWeather, © 2014

Note: Actual official high and low records may vary slightly from our data, if they occured in-between our weather recording intervals... More about our weather records

Advertising

Boa Vista weather history for previous 24 hours

 ConditionsComfort  
Time TempWeatherWind HumidityBarometerVisibility
9:00 PM
Jul 24
82 °FClear.No wind70%29.89 "Hg10 mi
8:00 PM84 °FPassing clouds.2 mph62%29.89 "HgN/A
7:00 PM82 °FScattered showers. Passing clouds.2 mph70%N/A6 mi
6:00 PM86 °FScattered showers. Scattered clouds.6 mph59%N/A6 mi
5:00 PM88 °FScattered showers. Scattered clouds.10 mph59%N/A6 mi
4:00 PM90 °FScattered showers. Broken clouds.8 mph49%N/A6 mi
3:00 PM90 °FScattered showers. Broken clouds.14 mph46%N/A6 mi
2:00 PM90 °FBroken clouds.12 mph49%29.86 "HgN/A
1:00 PM90 °FScattered clouds.12 mph52%29.92 "HgN/A
12:00 PM84 °FLight rain. Partly sunny.12 mph70%29.95 "Hg5 mi
11:00 AM88 °FScattered clouds.14 mph55%29.95 "HgN/A
10:00 AM86 °FScattered clouds.14 mph62%29.98 "HgN/A
9:00 AM82 °FSunny.12 mph70%29.98 "Hg10 mi
8:00 AM82 °FSunny.9 mph70%29.95 "Hg10 mi
7:00 AM77 °FSunny.3 mph83%29.92 "Hg10 mi
6:00 AM77 °FClear.2 mph79%29.89 "Hg10 mi
5:00 AM77 °FClear.3 mph79%29.89 "Hg10 mi
4:00 AM77 °FClear.2 mph79%29.89 "Hg10 mi
3:00 AM77 °FClear.3 mph79%29.89 "Hg10 mi
2:00 AM77 °FClear.2 mph83%29.89 "Hg10 mi
1:00 AM79 °FClear.5 mph79%29.92 "Hg10 mi
12:00 AM81 °FClear.5 mph74%29.95 "Hg10 mi
11:00 PM
Jul 23
81 °FClear.5 mph70%29.95 "Hg10 mi
10:00 PM82 °FClear.6 mph66%29.92 "Hg10 mi
Weather by CustomWeather, © 2014

See weather overviewHow to use our weather pages